KQA650 HKJK-HKKI

Flight info

Callsign KQA650
Flight time 0h 29m
Altitude 24000
Route ANTUK2D APKUB DCT NEVON NEVON1B
Aircraft B738/M-SDE2E3FGHIRWXY/LB1

Departure

Time 2026-04-21 17:13
Airport Jomo Kenyatta International Airport (HKJK)

Arrival

Time 2026-04-21 17:43
Airport Kisumu International Airport (HKKI)
Time Latitude Longitude Altitude Speed Heading
2026-04-21 16:53 -1.33051 36.92737 5323 ft 0 kts 358°
2026-04-21 17:09 -1.33004 36.92767 5323 ft 13 kts 26°
2026-04-21 17:09 -1.32920 36.92755 5320 ft 12 kts 339°
2026-04-21 17:09 -1.32837 36.92690 5318 ft 17 kts 313°
2026-04-21 17:10 -1.32778 36.92594 5315 ft 16 kts 288°
2026-04-21 17:10 -1.32764 36.92486 5316 ft 15 kts 266°
2026-04-21 17:10 -1.32791 36.92385 5319 ft 15 kts 243°
2026-04-21 17:10 -1.32846 36.92301 5320 ft 14 kts 241°
2026-04-21 17:11 -1.32814 36.92221 5323 ft 13 kts 322°
2026-04-21 17:11 -1.32799 36.92141 5322 ft 13 kts 245°
2026-04-21 17:11 -1.32849 36.92069 5320 ft 13 kts 234°
2026-04-21 17:11 -1.32897 36.91977 5332 ft 16 kts 272°
2026-04-21 17:12 -1.32884 36.91865 5334 ft 16 kts 277°
2026-04-21 17:12 -1.32874 36.91758 5335 ft 15 kts 276°
2026-04-21 17:12 -1.32806 36.91684 5338 ft 15 kts 322°
2026-04-21 17:12 -1.32718 36.91692 5337 ft 22 kts 52°
2026-04-21 17:13 -1.32469 36.92035 5319 ft 99 kts 54°
2026-04-21 17:13 -1.31920 36.92775 5334 ft 163 kts 58°
2026-04-21 17:13 -1.31223 36.93745 5892 ft 177 kts 58°
2026-04-21 17:13 -1.30462 36.94767 6729 ft 183 kts 53°
2026-04-21 17:14 -1.30012 36.95961 7374 ft 195 kts 92°
2026-04-21 17:14 -1.30590 36.97270 7545 ft 227 kts 132°
2026-04-21 17:14 -1.32016 36.98129 7777 ft 256 kts 161°
2026-04-21 17:14 -1.33828 36.98184 8331 ft 269 kts 191°
2026-04-21 17:15 -1.35476 36.97240 8788 ft 288 kts 225°
2026-04-21 17:15 -1.36429 36.95421 9180 ft 308 kts 261°
2026-04-21 17:15 -1.36522 36.93281 10005 ft 310 kts 269°
2026-04-21 17:15 -1.36691 36.91119 10667 ft 319 kts 263°
2026-04-21 17:16 -1.37071 36.88842 10859 ft 345 kts 258°
2026-04-21 17:16 -1.37575 36.86461 11140 ft 365 kts 258°
2026-04-21 17:16 -1.37731 36.83935 11667 ft 371 kts 280°
2026-04-21 17:16 -1.37034 36.81459 12432 ft 373 kts 291°
2026-04-21 17:17 -1.36074 36.79027 13066 ft 377 kts 294°
2026-04-21 17:17 -1.35045 36.76602 13770 ft 381 kts 294°
2026-04-21 17:17 -1.34000 36.74161 14417 ft 383 kts 294°
2026-04-21 17:17 -1.32960 36.71709 15088 ft 385 kts 294°
2026-04-21 17:18 -1.31917 36.69221 15597 ft 391 kts 293°
2026-04-21 17:18 -1.30866 36.66687 16055 ft 398 kts 293°
2026-04-21 17:18 -1.29812 36.64122 16682 ft 401 kts 293°
2026-04-21 17:18 -1.28768 36.61575 17227 ft 404 kts 293°
2026-04-21 17:19 -1.27699 36.58958 17784 ft 408 kts 293°
2026-04-21 17:19 -1.26620 36.56314 18258 ft 413 kts 293°
2026-04-21 17:19 -1.25563 36.53723 18668 ft 417 kts 293°
2026-04-21 17:19 -1.24465 36.51032 19190 ft 418 kts 293°
2026-04-21 17:20 -1.23365 36.48336 19707 ft 419 kts 293°
2026-04-21 17:20 -1.22263 36.45636 20220 ft 421 kts 293°
2026-04-21 17:20 -1.21154 36.42919 20659 ft 424 kts 293°
2026-04-21 17:20 -1.20036 36.40181 21087 ft 427 kts 293°
2026-04-21 17:21 -1.18910 36.37423 21501 ft 430 kts 293°
2026-04-21 17:21 -1.18163 36.35593 21777 ft 432 kts 293°
2026-04-21 17:21 -1.16651 36.31890 22325 ft 435 kts 293°
2026-04-21 17:21 -1.15504 36.29080 22726 ft 438 kts 293°
2026-04-21 17:22 -1.14725 36.27173 22987 ft 440 kts 293°
2026-04-21 17:22 -1.13198 36.23431 23755 ft 435 kts 293°
2026-04-21 17:22 -1.12063 36.20650 24028 ft 432 kts 293°
2026-04-21 17:22 -1.10920 36.17850 24101 ft 438 kts 293°
2026-04-21 17:23 -1.10153 36.15974 24110 ft 443 kts 293°
2026-04-21 17:23 -1.08807 36.13206 24095 ft 441 kts 303°
2026-04-21 17:23 -1.07071 36.10690 24111 ft 439 kts 307°
2026-04-21 17:23 -1.04617 36.07419 24117 ft 450 kts 309°
2026-04-21 17:24 -1.02710 36.04915 24122 ft 457 kts 308°
2026-04-21 17:24 -1.01410 36.03193 24114 ft 461 kts 308°
2026-04-21 17:24 -0.99516 36.00658 24117 ft 467 kts 308°
2026-04-21 17:24 -0.97624 35.98094 24123 ft 472 kts 307°
2026-04-21 17:25 -0.95678 35.95431 24116 ft 476 kts 307°
2026-04-21 17:25 -0.93728 35.92750 24116 ft 480 kts 307°
2026-04-21 17:25 -0.91756 35.90031 24114 ft 484 kts 307°
2026-04-21 17:25 -0.89128 35.86406 24113 ft 488 kts 307°
2026-04-21 17:26 -0.87780 35.84547 24107 ft 490 kts 307°
2026-04-21 17:26 -0.85776 35.81784 24110 ft 492 kts 307°
2026-04-21 17:26 -0.83762 35.79010 24106 ft 494 kts 307°
2026-04-21 17:26 -0.81795 35.76300 23920 ft 483 kts 307°
2026-04-21 17:27 -0.79836 35.73601 23187 ft 477 kts 307°
2026-04-21 17:27 -0.77890 35.70922 22288 ft 476 kts 307°
2026-04-21 17:27 -0.75947 35.68246 21451 ft 474 kts 307°
2026-04-21 17:27 -0.74021 35.65595 20760 ft 469 kts 307°
2026-04-21 17:28 -0.72120 35.62977 20094 ft 462 kts 307°
2026-04-21 17:28 -0.70248 35.60399 19678 ft 451 kts 307°
2026-04-21 17:28 -0.68447 35.57919 19612 ft 432 kts 307°
2026-04-21 17:28 -0.66720 35.55539 19517 ft 416 kts 307°
2026-04-21 17:29 -0.65068 35.53264 19336 ft 403 kts 307°
2026-04-21 17:29 -0.63447 35.51032 18793 ft 394 kts 307°
2026-04-21 17:29 -0.61816 35.48788 17914 ft 394 kts 307°
2026-04-21 17:29 -0.60234 35.46613 17097 ft 390 kts 307°
2026-04-21 17:30 -0.58653 35.44437 16346 ft 385 kts 307°
2026-04-21 17:30 -0.57089 35.42285 15626 ft 380 kts 307°
2026-04-21 17:30 -0.55546 35.40161 14910 ft 376 kts 307°
2026-04-21 17:30 -0.53882 35.38198 14540 ft 362 kts 319°
2026-04-21 17:31 -0.51995 35.36583 14321 ft 358 kts 322°
2026-04-21 17:31 -0.50047 35.34969 14107 ft 368 kts 322°
2026-04-21 17:31 -0.48070 35.33331 13861 ft 369 kts 322°
2026-04-21 17:31 -0.46104 35.31693 13608 ft 367 kts 321°
2026-04-21 17:32 -0.44188 35.30089 13347 ft 359 kts 321°
2026-04-21 17:32 -0.42315 35.28514 13080 ft 344 kts 321°
2026-04-21 17:32 -0.40525 35.27005 12813 ft 329 kts 321°
2026-04-21 17:32 -0.38814 35.25562 12555 ft 316 kts 321°
2026-04-21 17:33 -0.37153 35.24161 12269 ft 308 kts 321°
2026-04-21 17:33 -0.35532 35.22795 12021 ft 302 kts 321°
2026-04-21 17:33 -0.33926 35.21440 11788 ft 303 kts 321°
2026-04-21 17:33 -0.32304 35.20074 11558 ft 307 kts 321°
2026-04-21 17:34 -0.30664 35.18692 11322 ft 308 kts 321°
2026-04-21 17:34 -0.29058 35.17335 11089 ft 306 kts 321°
2026-04-21 17:34 -0.27435 35.15967 10856 ft 305 kts 321°
2026-04-21 17:34 -0.25827 35.14610 10621 ft 303 kts 321°
2026-04-21 17:35 -0.24220 35.13254 10461 ft 300 kts 321°
2026-04-21 17:35 -0.22618 35.11903 10344 ft 302 kts 321°
2026-04-21 17:35 -0.21009 35.10546 10215 ft 302 kts 321°
2026-04-21 17:35 -0.19408 35.09194 10085 ft 301 kts 321°
2026-04-21 17:36 -0.17808 35.07844 9926 ft 302 kts 321°
2026-04-21 17:36 -0.16194 35.06483 9596 ft 304 kts 321°
2026-04-21 17:36 -0.14587 35.05128 9276 ft 301 kts 321°
2026-04-21 17:36 -0.13067 35.03709 8933 ft 299 kts 307°
2026-04-21 17:37 -0.12187 35.01879 8657 ft 293 kts 288°
2026-04-21 17:37 -0.11623 34.99980 8387 ft 278 kts 286°
2026-04-21 17:37 -0.11123 34.98215 8099 ft 263 kts 285°
2026-04-21 17:37 -0.10629 34.96499 7806 ft 251 kts 286°
2026-04-21 17:38 -0.10151 34.94869 7531 ft 239 kts 286°
2026-04-21 17:38 -0.09691 34.93317 7280 ft 229 kts 286°
2026-04-21 17:38 -0.09241 34.91805 7060 ft 226 kts 286°
2026-04-21 17:38 -0.08795 34.90305 6841 ft 224 kts 286°
2026-04-21 17:39 -0.08361 34.88855 6675 ft 211 kts 286°
2026-04-21 17:39 -0.07956 34.87501 6473 ft 202 kts 286°
2026-04-21 17:39 -0.07564 34.86190 6280 ft 191 kts 286°
2026-04-21 17:39 -0.07186 34.84927 6142 ft 198 kts 286°
2026-04-21 17:40 -0.06798 34.83633 6188 ft 186 kts 286°
2026-04-21 17:40 -0.06448 34.82465 6035 ft 164 kts 285°
2026-04-21 17:40 -0.06140 34.81388 5582 ft 164 kts 280°
2026-04-21 17:40 -0.06284 34.80270 5491 ft 165 kts 252°
2026-04-21 17:41 -0.06568 34.79161 5408 ft 163 kts 256°
2026-04-21 17:41 -0.06822 34.78072 5224 ft 158 kts 256°
2026-04-21 17:41 -0.07070 34.76984 4857 ft 164 kts 256°
2026-04-21 17:41 -0.07316 34.75898 4554 ft 160 kts 255°
2026-04-21 17:42 -0.07612 34.74828 4199 ft 159 kts 248°
2026-04-21 17:42 -0.08075 34.73840 3894 ft 155 kts 239°
2026-04-21 17:42 -0.08562 34.72948 3779 ft 134 kts 240°
2026-04-21 17:42 -0.08882 34.72359 3775 ft 76 kts 241°
2026-04-21 17:43 -0.09044 34.72052 3784 ft 23 kts 242°
2026-04-21 17:43 -0.09067 34.71904 3776 ft 22 kts 300°
2026-04-21 17:43 -0.08946 34.71896 3776 ft 19 kts 52°
2026-04-21 17:43 -0.08889 34.72002 3780 ft 16 kts 63°
2026-04-21 17:44 -0.08838 34.72100 3783 ft 15 kts 62°
2026-04-21 17:44 -0.08790 34.72187 3780 ft 14 kts 61°
2026-04-21 17:44 -0.08746 34.72269 3778 ft 13 kts 62°
2026-04-21 17:44 -0.08706 34.72343 3775 ft 12 kts 62°
2026-04-21 17:45 -0.08670 34.72412 3784 ft 11 kts 62°